     2              OBSERVATION DATA    GPS                 RINEX VERSION / TYPE
teqc 2000Feb29 Duncan Agnew 20000425 21:39:08UTC            PGM / RUN BY / DATE
                                                            COMMENT
L2: 1 -> 1; 150 -> 5; 250 -> 9                              COMMENT
L2: 1 -> 1; 150 -> 5; 250 -> 9                              COMMENT
L2: 1 -> 1; 150 -> 5; 250 -> 9                              COMMENT
L2: 1 -> 1; 150 -> 5; 250 -> 9                              COMMENT
L2: 1 -> 1; 150 -> 5; 250 -> 9                              COMMENT
Original Marker Name: ITEM                                  COMMENT
Campaign Name: Hector Postseismic                           COMMENT
4-Character Station Name: ITEM                              COMMENT
6-Character Antenna Code: DMRCHT                            COMMENT
Vertical Measurement Point: BCR                             COMMENT
Vertical Offset to Rinex Ref. Point: 0.0348                 COMMENT
Radial Measurement Point: ECF                               COMMENT
Radial Offset to Rinex Ref. Point: 0.1897                   COMMENT
Antenna Height from Field Measurement: 0.7760 m             COMMENT
Additional Antenna Identification Info.:                    COMMENT
Turborogue and Ashtech Choke Ring                           COMMENT
Original XYZ: -2328015.9200 -4715963.0400 3598072.2400      COMMENT
New XYZ position is based on association with SCEC monument COMMENT
E1F2K7J2+0011. Position of that monument is believed to be  COMMENT
valid to within 1 m horizontally; vertical accuracy         COMMENT
should be no worse than 3-times this value.                 COMMENT
                                                            COMMENT
Revised Rinex header created by UCSD GPS archive for        COMMENT
GSAC on 28-Jul-2000 (2000:210) 05:16:17 GMT                 COMMENT
For assistance contact dagnew@ucsd.edu                      COMMENT
or anderson@python.ucsd.edu                                 COMMENT
                                                            COMMENT
ITEM 11TH MARINE SURVEY                                     MARKER NAME
HBW UNIV CALIF LOS ANGELES                                  OBSERVER / AGENCY
894 ASHTECH Z-XII3 1L00                                     REC # / TYPE / VERS
749 DORNE-MARGOL. TYPE T                                    ANT # / TYPE
 -2332374.2250 -4702435.1156  3612186.2691                  APPROX POSITION XYZ
        0.7177        0.0000        0.0000                  ANTENNA: DELTA H/E/N
     1     1     0                                          WAVELENGTH FACT L1/2
     7    C1    L1    L2    P1    P2    S1    S2            # / TYPES OF OBSERV
     0                                                      INTERVAL
  2000     4    17    23    38    0.000000                  TIME OF FIRST OBS
  2000     4    17    23    59   30.000000                  TIME OF LAST OBS
                                                            END OF HEADER
 00  4 17 23 38  0.0000000  0  2G26G 6
  21769529.549      -96162.81459    -69494.52056  21769529.659    21769538.373
       233.000         187.000
  20452271.598       97099.83559     73070.37357  20452271.795    20452279.670
       244.000         212.000
 00  4 17 23 38 30.0000000  0  2G26G 6
  21764267.511     -123811.61049    -91038.94246  21764268.055    21764276.215
       232.000         185.000
  20457273.150      123383.48549     93551.11548  20457273.520    20457281.462
       244.000         214.000
 00  4 17 23 39  0.0000000  0  2G26G 6
  21758987.687     -151557.31849   -112658.90847  21758988.458    21758997.054
       233.000         188.000
  20462237.425      149469.94349    113878.18747  20462237.676    20462245.851
       244.000         212.000
 00  4 17 23 39 30.0000000  0  2G26G 6
  21753706.367     -179311.18849   -134285.22247  21753707.132    21753715.741
       234.000         188.000
  20467183.319      175459.91349    134130.07348  20467183.535    20467191.482
       245.000         213.000
 00  4 17 23 40  0.0000000  0  2G26G 6
  21748436.878     -207003.07349   -155863.23446  21748437.544    21748445.887
       233.000         187.000
  20472124.762      201427.53349    154364.54647  20472125.131    20472132.951
       245.000         212.000
 00  4 17 23 40 30.0000000  0  2G26G 6
  21743190.120     -234573.68749   -177346.75347  21743190.691    21743199.412
       233.000         188.000
  20477071.171      227420.99749    174619.16547  20477071.390    20477079.276
       245.000         212.000
 00  4 17 23 41  0.0000000  0  2G26G 6
  21737974.080     -261984.75049   -198705.95246  21737974.576    21737982.837
       233.000         187.000
  20482029.554      253476.34949    194922.00947  20482029.493    20482037.822
       245.000         212.000
 00  4 17 23 41 30.0000000  0  2G26G 6
  21732790.166     -289226.15949   -219932.95046  21732790.243    21732799.568
       232.000         186.000
  20487000.639      279599.67349    215277.81447  20487000.957    20487008.848
       245.000         212.000
 00  4 17 23 42  0.0000000  0  2G26G 6
  21727626.614     -316359.69449   -241075.88346  21727627.267    21727636.317
       232.000         187.000
  20491968.646      305706.71749    235620.92947  20491968.669    20491976.835
       244.000         212.000
 00  4 17 23 42 30.0000000  0  2G26G 6
  21722509.263     -343249.80949   -262029.15046  21722510.006    21722518.490
       231.000         186.000
  20496957.943      331925.73749    256051.29647  20496958.352    20496966.320
       244.000         211.000
 00  4 17 23 43  0.0000000  0  2G26G 6
  21717435.510     -369912.14349   -282804.91546  21717436.255    21717445.055
       231.000         185.000
  20501968.049      358254.00749    276566.79847  20501968.244    20501976.475
       244.000         211.000
 00  4 17 23 43 29.9990000  0  2G26G 6
  21412601.765     -396405.18449   -303448.77946  21412602.431    21412611.466
       231.000         187.000
  20207197.021      384641.73749    297128.62747  20207197.322    20207205.477
       244.000         211.000
 00  4 17 23 43 59.9990000  0  6G23G26G22G21G 6G17
  21271534.696     -181763.31359   -128622.47557  21271534.789    21271544.387
       243.000         208.000
  21707397.531     -422663.69749   -323909.89147  21707398.084    21707406.588
       231.000         188.000
  23711539.956      -73795.04559    -52301.04456  23711540.019    23711555.410
       217.000         163.000
  24514932.795     -210782.42055                                  24514953.361
       209.000         146.000
  20512033.769      411149.20749    317783.76547  20512033.970    20512041.972
       244.000         211.000
  20851242.324      -57617.05155
       245.000         150.000
 00  4 17 23 44 29.9990000  0  6G23G26G22G21G 6G17
  21259804.423     -243405.91659   -176655.55057  21259804.302    21259813.860
       243.000         208.000
  21702430.548     -448765.38549   -344248.79447  21702430.983    21702439.822
       233.000         189.000
  23706810.799      -98645.04559    -71664.62756  23706811.386    23706825.734
       218.000         163.000
  24495618.299     -398070.12749   -289850.63045  24495619.933    24495642.981
       210.000         146.000
  20517088.651      437712.37849    338482.31347  20517089.045    20517097.018
       244.000         211.000
  20845852.169      -13515.24148                                  20845860.397
       245.000         213.000
 00  4 17 23 44 59.9990000  0  6G23G26G22G21G 6G17
  21248067.674     -305082.26649   -224714.92447  21248067.612    21248077.023
       243.000         208.000
  21697489.082     -474732.87549   -364483.12147  21697489.386    21697497.956
       233.000         189.000
  23702094.671     -123427.71749    -90975.76245  23702094.522    23702109.656
       216.000         161.000
  24476251.510     -499856.84649   -369164.29345  24476250.015    24476275.037
       207.000         147.000
  20522148.819      464303.55549    359202.67547  20522148.975    20522157.019
       244.000         211.000
  20840404.853     -138814.41359    -35821.43558  20840404.567    20840412.835
       245.000         213.000
 00  4 17 23 45 29.9990000  0  6G23G26G22G21G 6G17
  21236393.672     -366430.00749   -272518.24547  21236393.569    21236403.122
       243.000         208.000
  21692643.148     -500198.08249   -384326.06747  21692643.361    21692652.235
       233.000         189.000
  23697456.400     -147803.46549   -109969.81945  23697455.098    23697471.664
       215.000         161.000
  24456889.539     -601603.43959   -448446.73255  24456890.128    24456911.171
       210.000         146.000
  20527282.142      491279.26449    380222.67847  20527282.325    20527290.489
       244.000         211.000
  20834967.024     -167390.28649    -58088.31148  20834966.866    20834975.214
       245.000         213.000
 00  4 17 23 45 59.9990000  0  6G23G26G22G21G 6G17
  21224770.934     -427507.69649   -320111.13447  21224770.796    21224780.197
       243.000         209.000
  21687885.679     -525198.30149   -403806.67847  21687886.293    21687894.682
       233.000         191.000
  23692883.825     -171830.31949   -128691.99745  23692883.588    23692898.543
       215.000         160.000
  24437525.383     -703361.51349   -527738.12845  24437525.491    24437547.137
       212.000         149.000
  20532480.508      518595.82149    401508.27547  20532480.570    20532488.673
       244.000         211.000
  20829529.613     -195963.16749    -80352.85648  20829529.530    20829537.809
       245.000         213.000
 00  4 17 23 46 29.9990000  0  6G23G26G22G21G 6G17
  21213186.963     -488380.26049   -367544.18747  21213186.963    21213196.357
       243.000         209.000
  21683205.250     -549795.73149   -422973.43247  21683205.603    21683214.175
       234.000         190.000
  23688371.126     -195544.35749   -147170.42645  23688370.897    23688386.831
       218.000         161.000
  24418151.651     -805169.55449   -607068.46445  24418152.337    24418173.661
       212.000         148.000
  20537734.381      546204.97249    423021.86647  20537734.551    20537742.706
       245.000         211.000
  20824084.340     -224579.22849   -102651.04848  20824084.151    20824092.328
       245.000         213.000
 00  4 17 23 46 59.9990000  0  6G23G26G22G21G 6G17
  21201639.330     -549062.91549   -414829.25847  21201639.192    21201648.763
       243.000         209.000
  21678599.959     -573993.88149   -441829.06847  21678600.797    21678609.235
       233.000         189.000
  23683918.310     -218948.54649   -165407.41945  23683917.481    23683931.670
       217.000         161.000
  24398769.953     -907016.31149   -686429.01645  24398769.933    24398790.059
       212.000         148.000
  20543042.381      574099.34549    444757.70647  20543042.689    20543050.783
       244.000         211.000
  20818632.308     -253229.02849   -124975.52748  20818632.061    20818640.302
       245.000         213.000
 00  4 17 23 47 29.9990000  0  6G23G26G22G21G 6G17
  21190129.757     -609546.51549   -461959.22847  21190129.629    21190138.937
       243.000         209.000
  21674073.758     -597780.25849   -460363.83347  21674074.183    21674083.054
       233.000         189.000
  23679525.938     -242026.97449   -183390.57245  23679525.150    23679541.139
       216.000         159.000
  24379382.209    -1008898.80349   -765817.41945  24379381.660    24379403.663
       216.000         149.000
  20548406.381      602286.67749    466721.82847  20548406.744    20548414.757
       244.000         211.000
  20813179.555     -281883.67249   -147303.78548  20813179.392    20813187.464
       245.000         213.000
 00  4 17 23 47 59.9990000  0  6G23G26G22G21G 6G17
  21178659.224     -669824.41249   -508928.90247  21178659.204    21178668.554
       244.000         209.000
  21669629.791     -621132.78749   -478560.54047  21669630.235    21669638.624
       233.000         189.000
  23675201.452     -264754.77449   -201100.50945  23675201.016    23675215.786
       217.000         161.000
  24359992.777    -1110791.93549   -845214.13345  24359992.262    24360013.040
       216.000         150.000
  20553828.192      630778.28849    488923.05047  20553828.456    20553836.690
       244.000         211.000
  20807731.403     -310513.80949   -169612.94348  20807731.367    20807739.285
       245.000         213.000
 00  4 17 23 48 29.9990000  0  6G23G26G22G21G 6G17
  21167230.430     -729883.60449   -555728.15947  21167230.284    21167239.501
       244.000         210.000
  21665267.254     -644057.45949   -496423.85947  21665267.873    21665276.085
       234.000         189.000
  23670941.782     -287138.51649   -218542.36345  23670940.955    23670956.342
       218.000         160.000
  24340600.694    -1212691.21149   -924615.65545  24340600.760    24340622.126
       213.000         150.000
  20559306.324      659565.94049    511354.94947  20559306.465    20559314.679
       244.000         211.000
  20802287.542     -339121.38549   -191904.52548  20802287.369    20802295.370
       245.000         213.000
 00  4 17 23 48 59.9990000  0  7G23G26G22G21G 6G17G30
  21155844.433     -789715.95749   -602350.66247  21155844.367    21155853.751
       244.000         210.000
  21660989.569     -666537.83849   -513940.97247  21660989.842    21660998.886
       234.000         189.000
  23666743.547     -309201.37349   -235734.15845  23666742.688    23666757.253
       217.000         162.000
  24321206.956    -1314605.07949  -1004028.53945  24321207.038    24321228.141
       214.000         149.000
  20564839.127      688641.24149    534010.98547  20564839.362    20564847.621
       244.000         211.000
  20796845.751     -367718.27149   -214187.78148  20796845.616    20796853.816
       244.000         213.000
  24707519.577      189731.37255                                  24707544.299
       215.000         154.000
 00  4 17 23 49 29.9990000  0  7G23G26G22G21G 6G17G30
  21144504.142     -849309.76149   -648787.28347  21144504.068    21144513.354
       243.000         210.000
  21656799.870     -688554.73149   -531096.93247  21656800.711    21656808.518
       233.000         189.000
  23662606.519     -330940.12949   -252673.41145  23662606.089    23662621.145
       217.000         162.000
  24301813.666    -1416516.87349  -1083439.81745  24301813.245    24301834.977
       214.000         149.000
  20570428.557      718012.69549    556897.79547  20570428.886    20570436.726
       244.000         210.000
  20791405.339     -396307.44849   -236465.02348  20791405.112    20791413.219
       245.000         213.000
  24723529.250      338256.75549    255291.77445  24723530.281    24723555.166
       216.000         155.000
 00  4 17 23 49 59.9990000  0  7G23G26G22G21G 6G17G30
  21133211.727     -908651.96849   -695027.85547  21133211.533    21133220.877
       244.000         210.000
  21652697.953     -710108.12749   -547891.73347  21652698.504    21652707.068
       233.000         189.000
  23658533.846     -352342.72149   -269350.71445  23658533.554    23658548.005
       217.000         162.000
  24282425.815    -1518396.89249  -1162826.31045  24282425.489    24282447.539
       216.000         149.000
  20576078.535      747704.49949    580034.22547  20576078.831    20576087.071
       244.000         210.000
  20785967.529     -424882.69349   -258731.41348  20785967.469    20785975.667
       245.000         213.000
  24739485.236      422100.81149    320624.33745  24739485.631    24739510.221
       214.000         154.000
 00  4 17 23 50 29.9990000  0  7G23G26G22G21G 6G17G30
  21121966.782     -967743.57449   -741073.15447  21121966.740    21121975.693
       244.000         210.000
  21648680.536     -731221.66749   -564343.77747  21648680.948    21648689.189
       233.000         189.000
  23654522.929     -373420.26349   -285774.74645  23654522.115    23654536.574
       217.000         161.000
  24263041.304    -1620262.41749  -1242201.51845  24263041.339    24263061.839
       215.000         150.000
  20581788.660      777711.18049    603416.01447  20581789.026    20581797.047
       244.000         210.000
  20780530.657     -453454.10349   -280994.81348  20780530.258    20780538.515
       245.000         213.000
  24755383.431      505644.99659    385723.24955  24755384.061    24755408.791
       216.000         152.000
 00  4 17 23 50 59.9990000  0  6G23G26G22G21G 6G17
  21110767.402    -1026596.42849   -786932.41447  21110767.260    21110776.331
       244.000         211.000
  21644747.469     -751888.99149   -580448.12447  21644747.638    21644756.331
       233.000         189.000
  23650575.445     -394163.50549   -301938.26745  23650575.040    23650589.828
       216.000         160.000
  24243660.288    -1722105.19849  -1321558.99245  24243660.705    24243680.682
       216.000         150.000
  20587559.649      808036.98949    627046.47147  20587559.815    20587568.053
       243.000         210.000
  20775095.253     -482016.52449   -303251.20448  20775095.176    20775103.472
       245.000         213.000
 00  4 17 23 51 29.9990000  0  6G23G26G22G21G 6G17
  21099615.015    -1085202.97649   -832599.74847  21099614.666    21099624.005
       244.000         211.000
  21640897.956     -772119.17349   -596211.84947  21640898.084    21640906.951
       234.000         190.000
  23646696.615     -414545.61949   -317820.39745  23646696.333    23646711.589
       217.000         161.000
  24224286.901    -1823911.40649  -1400887.94145  24224287.371    24224307.480
       215.000         150.000
  20593396.259      838708.19149    650946.06547  20593396.397    20593404.754
       244.000         210.000
  20769665.654     -510550.02449   -325485.06248  20769665.620    20769673.756
       245.000         213.000
 00  4 17 23 51 59.9990000  0  6G23G26G22G21G 6G17
  21088505.973    -1143579.91949   -878088.17047  21088505.909    21088515.097
       244.000         211.000
  21637128.783     -791926.14249   -611645.79047  21637129.330    21637137.232
       234.000         190.000
  23642888.570     -434559.24449   -333415.38945  23642888.171    23642903.630
       217.000         162.000
  24204918.170    -1925694.04149  -1480198.52045  24204919.155    24204938.907
       216.000         151.000
  20599299.099      869728.66949    675117.81947  20599299.366    20599307.704
       244.000         210.000
  20764242.314     -539049.60249   -347692.49248  20764242.211    20764250.257
       245.000         213.000
 00  4 17 23 52 29.9990000  0  6G23G26G22G21G 6G17
  21077441.836    -1201722.74749   -923394.16647  21077441.756    21077450.912
       244.000         211.000
  21633444.922     -811283.74349   -626729.57447  21633445.639    21633453.785
       234.000         189.000
  23639151.361     -454199.21749   -348719.23245  23639151.168    23639164.610
       218.000         161.000
  24185552.879    -2027454.45249  -1559491.76745  24185552.491    24185574.113
       215.000         151.000
  20605270.161      901105.87249    699567.53447  20605270.576    20605278.549
       243.000         210.000
  20758825.090     -567517.54849   -369875.26748  20758824.939    20758832.895
       244.000         213.000
 00  4 17 23 52 59.9990000  0  6G23G26G22G21G 6G17
  21066426.109    -1259609.78549   -968500.85047  21066426.117    21066434.905
       244.000         211.000
  21629857.526     -830136.26649   -641419.78847  21629857.688    21629866.402
       234.000         190.000
  23635490.566     -473434.78249   -363707.96245  23635489.528    23635504.717
       216.000         160.000
  24166199.449    -2129155.16549  -1638738.49445  24166198.937    24166220.326
       213.000         150.000
  20611316.584      932879.99749    724326.54747  20611316.687    20611325.081
       243.000         210.000
  20753419.228     -595924.98249   -392010.89848  20753419.102    20753427.122
       244.000         213.000
 00  4 17 23 53 29.9990000  0  6G23G26G22G21G 6G17
  21055461.534    -1317228.77249  -1013398.66147  21055461.428    21055470.382
       244.000         211.000
  21626369.954     -848462.95949   -655700.27547  21626370.621    21626378.799
       234.000         190.000
  23631914.057     -492230.63449   -378354.05645  23631913.679    23631928.242
       218.000         160.000
  24146861.015    -2230781.72949  -1717927.43945  24146859.855    24146880.208
       214.000         153.000
  20617442.483      965071.52349    749410.80347  20617442.770    20617450.986
       244.000         210.000
  20748028.417     -624253.60649   -414085.11648  20748028.240    20748036.414
       244.000         213.000
 00  4 17 23 53 59.9990000  0  6G23G26G22G21G 6G17
  21044552.794    -1374554.52349  -1058067.97547  21044552.716    21044561.621
       245.000         212.000
  21622991.100     -866219.37149   -669536.37347  21622991.750    21622999.853
       234.000         190.000
  23628423.928     -510569.75949   -392644.25845  23628424.235    23628438.590
       219.000         161.000
  24127539.345    -2332316.14349  -1797044.56845  24127539.180    24127558.087
       215.000         153.000
  20623647.702      997679.22349    774819.35147  20623647.938    20623656.130
       243.000         209.000
  20742655.793     -652486.95549   -436085.09348  20742655.641    20742663.602
       244.000         213.000
 00  4 17 23 54 29.9990000  0  6G23G26G22G21G 6G17
  21033700.059    -1431585.26549  -1102507.42047  21033700.245    21033708.970
       244.000         212.000
  21619719.320     -883411.62849   -682932.87147  21619719.938    21619728.050
       234.000         191.000
  23625014.301     -528487.69949   -406606.26345  23625014.209    23625028.335
       217.000         161.000
  24108231.713    -2433775.54549  -1876103.24445  24108231.681    24108250.572
       214.000         153.000
  20629924.131     1030661.67449    800519.90947  20629924.204    20629932.359
       243.000         209.000
  20737298.009     -680642.43049   -458024.39548  20737297.846    20737306.007
       245.000         213.000
 00  4 17 23 54 59.9990000  0  6G23G26G22G21G 6G17
  21022904.273    -1488317.25249  -1146714.06747  21022904.196    21022913.197
       245.000         212.000
  21616551.457     -900059.13549   -695904.89947  21616551.881    21616560.364
       234.000         190.000
  23621683.460     -545990.65149   -420244.89945  23621682.473    23621697.427
       218.000         161.000
  24088938.699    -2535156.54649  -1955100.83845  24088937.661    24088958.897
       213.000         153.000
  20636266.829     1063993.20249    826492.46847  20636267.072    20636275.328
       244.000         209.000
  20731957.878     -708704.74749   -479891.10448  20731957.802    20731965.887
       244.000         213.000
 00  4 17 23 55 29.9990000  0  6G23G26G22G21G 6G17
  21012164.753    -1544753.44749  -1190690.22547  21012164.638    21012173.607
       244.000         212.000
  21613478.562     -916205.89849   -708486.74247  21613479.268    21613488.041
       233.000         190.000
  23618425.248     -563113.68149   -433587.49546  23618424.694    23618439.493
       218.000         163.000
  24069657.017    -2636479.19749  -2034052.96645  24069657.427    24069675.911
       213.000         153.000
  20642668.608     1097634.92949    852706.74347  20642668.834    20642677.045
       243.000         209.000
  20726630.316     -736701.15649   -501706.45648  20726629.951    20726637.993
       245.000         213.000
 00  4 17 23 55 59.9990000  0  6G23G26G22G21G 6G17
  21001482.378    -1600889.82649  -1234432.76347  21001482.338    21001491.018
       245.000         212.000
  21610499.154     -931864.85149   -720688.46147  21610499.342    21610507.777
       234.000         190.000
  23615230.383     -579902.89849   -446669.98545  23615230.434    23615244.790
       218.000         161.000
  24050385.192    -2737752.64849  -2112966.77345  24050384.985    24050403.553
       213.000         155.000
  20649126.157     1131569.46249    879149.17647  20649126.407    20649134.920
       243.000         209.000
  20721313.554     -764641.20749   -523477.89048  20721313.511    20721321.434
       245.000         213.000
 00  4 17 23 56 29.9990000  0  6G23G26G22G21G 6G17
  20990854.733    -1656738.35249  -1277950.99747  20990854.539    20990863.478
       245.000         212.000
  21607604.165     -947076.33849   -732541.50847  21607604.483    21607613.018
       234.000         190.000
  23612097.261     -596366.61149   -459498.82445  23612096.626    23612111.304
       218.000         162.000
  24031122.188    -2838980.96049  -2191845.41945  24031121.393    24031140.905
       215.000         155.000
  20655639.962     1165798.62249    905821.18647  20655640.280    20655648.482
       243.000         208.000
  20716005.423     -792535.53749   -545213.70048  20716005.374    20716013.506
       245.000         213.000
 00  4 17 23 56 59.9990000  0  6G23G26G22G21G 6G17
  20980275.811    -1712329.85949  -1321268.95947  20980275.761    20980284.579
       245.000         212.000
  21604789.203     -961868.86149   -744068.09547  21604789.501    21604797.929
       234.000         190.000
  23609023.926     -612518.86949   -472084.98146  23609024.427    23609037.172
       219.000         164.000
  24011864.480    -2940174.64249  -2270697.10145  24011864.909    24011883.825
       211.000         153.000
  20662209.818     1200323.25349    932723.43547  20662210.188    20662218.519
       243.000         209.000
  20710698.370     -820423.33649   -566944.41848  20710698.357    20710706.395
       245.000         213.000
 00  4 17 23 57 29.9990000  0  6G23G26G22G21G 6G17
  20969734.699    -1767724.01749  -1364433.14547  20969734.789    20969743.269
       245.000         212.000
  21602046.670     -976282.00049   -755299.06447  21602047.282    21602055.505
       234.000         190.000
  23606000.347     -628407.58149   -484465.79246  23605999.856    23606014.584
       220.000         163.000
  23992603.164    -3041392.26149  -2349567.44345  23992603.048    23992623.556
       214.000         155.000
  20668827.532     1235099.45149    959821.70847  20668827.863    20668835.879
       243.000         209.000
  20705380.011     -848371.73249   -588722.36148  20705379.901    20705387.716
       245.000         213.000
 00  4 17 23 57 59.9990000  0  6G23G26G22G21G 6G17
  20959224.823    -1822953.09549  -1407468.69848  20959224.599    20959233.457
       245.000         213.000
  21599373.202     -990328.87749   -766244.64247  21599373.572    21599381.923
       234.000         190.000
  23603026.974     -644032.34649   -496640.92146  23603026.219    23603041.495
       219.000         163.000
  23973332.341    -3142657.72549  -2428475.08045  23973333.078    23973351.824
       213.000         156.000
  20675490.024     1270110.49749    987102.98047  20675490.419    20675498.599
       243.000         208.000
  20700050.114     -876381.16549   -610547.86348  20700050.028    20700057.876
       245.000         213.000
 00  4 17 23 58 29.9990000  0  6G23G26G22G21G 6G17
  20948752.460    -1877985.27749  -1450350.83248  20948752.355    20948761.083
       245.000         213.000
  21596778.937    -1003963.03349   -776868.61447  21596779.683    21596787.284
       234.000         190.000
  23600115.560     -659333.20649   -508563.66945  23600115.109    23600129.317
       220.000         161.000
  23954061.976    -3243924.83749  -2507384.02345  23954061.519    23954081.399
       212.000         157.000
  20682207.594     1305411.34249   1014610.06847  20682207.923    20682216.115
       243.000         208.000
  20694717.162     -904405.48049   -632384.96248  20694717.014    20694725.082
       245.000         213.000
 00  4 17 23 58 59.9990000  0  6G23G26G22G21G 6G17
  20938335.966    -1932723.76849  -1493004.11348  20938335.864    20938344.472
       245.000         213.000
  21594288.039    -1017053.15249   -787068.67147  21594288.673    21594297.312
       234.000         189.000
  23597285.327     -674205.37249   -520152.36745  23597285.126    23597299.462
       219.000         162.000
  23934811.068    -3345086.74849  -2586210.99145  23934811.052    23934830.470
       212.000         157.000
  20688999.617     1341104.28349   1042422.68647  20689000.207    20689008.343
       242.000         208.000
  20689403.334     -932329.67949   -654144.04648  20689403.309    20689411.071
       244.000         213.000
